Time,TemperatureF,DewpointF,PressureIn,WindDirection,WindDirectionDegrees,WindSpeedMPH,WindSpeedGustMPH,Humidity,HourlyPrecipIn,Conditions,Clouds,dailyrainin,SolarRadiationWatts/m^2,SoftwareType,DateUTC
2013-07-10 00:00:00,82.4,77.1,29.99,SE,131,3.0,15.2,84,0.00,,---,0.00,0.00,VWS V14.01,2013-07-10 05:00:00,
2013-07-10 00:01:00,82.4,77.1,29.99,SSE,159,5.0,15.2,84,0.00,,---,0.00,0.00,VWS V14.01,2013-07-10 05:01:00,
2013-07-10 00:05:00,82.6,77.3,29.99,SSE,159,6.0,11.2,84,0.00,,---,0.00,0.00,VWS V14.01,2013-07-10 05:05:00,
2013-07-10 00:06:00,82.6,77.3,29.99,SSE,150,5.0,11.2,84,0.00,,---,0.00,0.00,VWS V14.01,2013-07-10 05:06:00,
2013-07-10 00:10:00,82.8,77.5,29.99,South,173,3.0,17.2,84,0.00,,---,0.00,0.00,VWS V14.01,2013-07-10 05:10:00,
2013-07-10 00:11:00,82.8,77.5,29.99,South,174,5.0,17.2,84,0.00,,---,0.00,0.00,VWS V14.01,2013-07-10 05:11:00,
2013-07-10 00:15:00,82.6,77.3,29.99,SSE,148,4.0,13.2,84,0.00,,---,0.00,0.00,VWS V14.01,2013-07-10 05:15:00,
2013-07-10 00:16:00,82.6,77.3,29.99,SSE,147,5.0,13.2,84,0.00,,---,0.00,0.00,VWS V14.01,2013-07-10 05:16:00,
2013-07-10 00:20:00,82.6,77.3,29.99,SSE,150,11.0,12.2,84,0.00,,---,0.00,0.00,VWS V14.01,2013-07-10 05:20:00,
2013-07-10 00:21:00,82.6,77.3,29.99,SSE,151,11.0,12.2,84,0.00,,---,0.00,0.00,VWS V14.01,2013-07-10 05:21:00,
2013-07-10 00:25:00,82.6,77.6,29.99,SSE,165,5.0,12.2,85,0.00,,---,0.00,0.00,VWS V14.01,2013-07-10 05:25:00,
2013-07-10 00:26:00,82.6,77.6,29.99,SSE,166,6.0,12.2,85,0.00,,---,0.00,0.00,VWS V14.01,2013-07-10 05:26:00,
2013-07-10 00:30:00,82.4,77.4,29.99,SSE,148,2.0,13.2,85,0.00,,---,0.00,0.00,VWS V14.01,2013-07-10 05:30:00,
2013-07-10 00:31:00,82.4,77.4,29.99,SSE,148,1.0,13.2,85,0.00,,---,0.00,0.00,VWS V14.01,2013-07-10 05:31:00,
2013-07-10 00:35:00,82.2,77.6,29.99,SE,136,5.0,10.2,86,0.00,,---,0.00,0.00,VWS V14.01,2013-07-10 05:35:00,
2013-07-10 00:36:00,82.2,77.6,29.99,SE,136,4.0,10.2,86,0.00,,---,0.00,0.00,VWS V14.01,2013-07-10 05:36:00,
2013-07-10 00:40:00,82.4,77.8,29.99,SE,128,3.0,11.2,86,0.00,,---,0.00,0.00,VWS V14.01,2013-07-10 05:40:00,
2013-07-10 00:41:00,82.4,77.8,29.99,SE,128,4.0,11.2,86,0.00,,---,0.00,0.00,VWS V14.01,2013-07-10 05:41:00,
2013-07-10 00:45:00,82.4,77.8,29.99,SSE,150,2.0,14.2,86,0.00,,---,0.00,0.00,VWS V14.01,2013-07-10 05:45:00,
2013-07-10 00:46:00,82.4,77.8,29.99,SSE,150,3.0,14.2,86,0.00,,---,0.00,0.00,VWS V14.01,2013-07-10 05:46:00,
2013-07-10 00:50:00,82.2,77.9,29.99,SE,130,7.0,15.2,87,0.00,,---,0.00,0.00,VWS V14.01,2013-07-10 05:50:00,
2013-07-10 00:51:00,82.2,77.9,29.99,SE,139,7.0,15.2,87,0.00,,---,0.00,0.00,VWS V14.01,2013-07-10 05:51:00,
2013-07-10 00:55:00,82.2,77.9,29.99,South,172,3.0,13.2,87,0.00,,---,0.00,0.00,VWS V14.01,2013-07-10 05:55:00,
2013-07-10 00:56:00,82.2,77.9,29.99,SSE,161,4.0,13.2,87,0.00,,---,0.00,0.00,VWS V14.01,2013-07-10 05:56:00,
2013-07-10 01:00:00,82.2,77.9,29.99,SE,140,6.0,15.2,87,0.00,,---,0.00,0.00,VWS V14.01,2013-07-10 06:00:00,
2013-07-10 01:01:00,82.2,77.9,29.99,ESE,117,7.0,15.2,87,0.00,,---,0.00,0.00,VWS V14.01,2013-07-10 06:01:00,
2013-07-10 01:05:00,82.0,77.8,29.99,SSE,153,5.0,15.2,87,0.00,,---,0.00,0.00,VWS V14.01,2013-07-10 06:05:00,
2013-07-10 01:06:00,82.0,77.8,29.99,SE,146,10.0,15.2,87,0.00,,---,0.00,0.00,VWS V14.01,2013-07-10 06:06:00,
2013-07-10 01:10:00,82.2,77.9,29.99,SE,132,4.0,10.2,87,0.00,,---,0.00,0.00,VWS V14.01,2013-07-10 06:10:00,
2013-07-10 01:11:00,82.2,77.9,29.99,ESE,120,7.0,10.2,87,0.00,,---,0.00,0.00,VWS V14.01,2013-07-10 06:11:00,
2013-07-10 01:15:00,82.2,77.9,29.99,SE,130,6.0,12.2,87,0.00,,---,0.00,0.00,VWS V14.01,2013-07-10 06:15:00,
2013-07-10 01:16:00,82.2,77.9,29.99,ESE,113,5.0,12.2,87,0.00,,---,0.00,0.00,VWS V14.01,2013-07-10 06:16:00,
2013-07-10 01:20:00,82.6,78.3,29.99,SE,125,2.0,10.2,87,0.00,,---,0.00,0.00,VWS V14.01,2013-07-10 06:20:00,
2013-07-10 01:21:00,82.6,78.3,29.99,SE,125,4.0,10.2,87,0.00,,---,0.00,0.00,VWS V14.01,2013-07-10 06:21:00,
2013-07-10 01:25:00,82.6,78.0,29.99,SE,140,2.0,10.2,86,0.00,,---,0.00,0.00,VWS V14.01,2013-07-10 06:25:00,
2013-07-10 01:26:00,82.6,78.0,29.99,SE,140,5.0,10.2,86,0.00,,---,0.00,0.00,VWS V14.01,2013-07-10 06:26:00,
2013-07-10 01:30:00,82.4,77.8,29.98,SE,132,3.0,11.2,86,0.00,,---,0.00,0.00,VWS V14.01,2013-07-10 06:30:00,
2013-07-10 01:31:00,82.4,77.8,29.98,SE,132,6.0,11.2,86,0.00,,---,0.00,0.00,VWS V14.01,2013-07-10 06:31:00,
2013-07-10 01:35:00,82.4,77.8,29.98,SE,129,3.0,10.2,86,0.00,,---,0.00,0.00,VWS V14.01,2013-07-10 06:35:00,
2013-07-10 01:36:00,82.4,77.8,29.98,SE,129,2.0,10.2,86,0.00,,---,0.00,0.00,VWS V14.01,2013-07-10 06:36:00,
2013-07-10 01:40:00,82.4,77.8,29.98,SSE,153,5.0,8.2,86,0.00,,---,0.00,0.00,VWS V14.01,2013-07-10 06:40:00,
2013-07-10 01:41:00,82.4,77.8,29.98,SSE,159,2.0,8.2,86,0.00,,---,0.00,0.00,VWS V14.01,2013-07-10 06:41:00,
2013-07-10 01:45:00,82.2,77.6,29.98,SSE,151,6.0,12.2,86,0.00,,---,0.00,0.00,VWS V14.01,2013-07-10 06:45:00,
2013-07-10 01:46:00,82.2,77.6,29.98,SE,136,11.0,12.2,86,0.00,,---,0.00,0.00,VWS V14.01,2013-07-10 06:46:00,
2013-07-10 01:50:00,82.0,77.8,29.98,SE,144,4.0,11.2,87,0.00,,---,0.00,0.00,VWS V14.01,2013-07-10 06:50:00,
2013-07-10 01:51:00,82.0,77.8,29.98,SE,144,5.0,11.2,87,0.00,,---,0.00,0.00,VWS V14.01,2013-07-10 06:51:00,
2013-07-10 01:55:00,82.0,77.8,29.98,SSE,159,5.0,11.2,87,0.00,,---,0.00,0.00,VWS V14.01,2013-07-10 06:55:00,
2013-07-10 01:56:00,82.0,77.8,29.98,SSE,159,4.0,11.2,87,0.00,,---,0.00,0.00,VWS V14.01,2013-07-10 06:56:00,
2013-07-10 02:00:00,82.2,77.9,29.98,SE,138,2.0,8.2,87,0.00,,---,0.00,0.00,VWS V14.01,2013-07-10 07:00:00,
2013-07-10 02:01:00,82.2,77.9,29.98,SE,138,5.0,8.2,87,0.00,,---,0.00,0.00,VWS V14.01,2013-07-10 07:01:00,
2013-07-10 02:05:00,82.2,77.6,29.98,SSE,153,4.0,13.2,86,0.00,,---,0.00,0.00,VWS V14.01,2013-07-10 07:05:00,
2013-07-10 02:06:00,82.2,77.6,29.98,SSE,153,4.0,13.2,86,0.00,,---,0.00,0.00,VWS V14.01,2013-07-10 07:06:00,
2013-07-10 02:10:00,82.0,77.4,29.98,SSE,166,5.0,12.2,86,0.00,,---,0.00,0.00,VWS V14.01,2013-07-10 07:10:00,
2013-07-10 02:11:00,82.0,77.4,29.98,SSE,166,1.0,12.2,86,0.00,,---,0.00,0.00,VWS V14.01,2013-07-10 07:11:00,
2013-07-10 02:15:00,82.0,77.4,29.98,SSE,149,5.0,8.2,86,0.00,,---,0.00,0.00,VWS V14.01,2013-07-10 07:15:00,
2013-07-10 02:16:00,82.0,77.4,29.98,SSE,149,7.0,8.2,86,0.00,,---,0.00,0.00,VWS V14.01,2013-07-10 07:16:00,
2013-07-10 02:20:00,82.0,77.8,29.98,SSE,155,1.0,7.2,87,0.00,,---,0.00,0.00,VWS V14.01,2013-07-10 07:20:00,
2013-07-10 02:21:00,82.0,77.8,29.98,SSE,155,1.0,7.2,87,0.00,,---,0.00,0.00,VWS V14.01,2013-07-10 07:21:00,
2013-07-10 02:25:00,81.8,77.6,29.98,SSE,150,0.0,7.2,87,0.00,,---,0.00,0.00,VWS V14.01,2013-07-10 07:25:00,
2013-07-10 02:26:00,81.8,77.6,29.98,SSE,150,0.0,7.2,87,0.00,,---,0.00,0.00,VWS V14.01,2013-07-10 07:26:00,
2013-07-10 02:30:00,81.8,77.6,29.98,SSE,151,7.0,8.2,87,0.00,,---,0.00,0.00,VWS V14.01,2013-07-10 07:30:00,
2013-07-10 02:31:00,81.8,77.6,29.98,SE,137,7.0,8.2,87,0.00,,---,0.00,0.00,VWS V14.01,2013-07-10 07:31:00,
2013-07-10 02:35:00,81.8,77.6,29.98,SSE,167,5.0,10.2,87,0.00,,---,0.00,0.00,VWS V14.01,2013-07-10 07:35:00,
2013-07-10 02:36:00,81.8,77.6,29.98,South,178,0.0,10.2,87,0.00,,---,0.00,0.00,VWS V14.01,2013-07-10 07:36:00,
2013-07-10 02:40:00,82.0,77.8,29.98,SE,142,6.0,7.2,87,0.00,,---,0.00,0.00,VWS V14.01,2013-07-10 07:40:00,
2013-07-10 02:41:00,82.0,77.8,29.98,SE,141,4.0,7.2,87,0.00,,---,0.00,0.00,VWS V14.01,2013-07-10 07:41:00,
2013-07-10 02:45:00,82.2,77.6,29.98,SSE,150,9.0,10.2,86,0.00,,---,0.00,0.00,VWS V14.01,2013-07-10 07:45:00,
2013-07-10 02:46:00,82.2,77.6,29.98,SSE,161,4.0,10.2,86,0.00,,---,0.00,0.00,VWS V14.01,2013-07-10 07:46:00,
2013-07-10 02:50:00,82.2,77.2,29.98,SE,141,4.0,11.2,85,0.00,,---,0.00,0.00,VWS V14.01,2013-07-10 07:50:00,
2013-07-10 02:51:00,82.2,77.2,29.98,SE,140,5.0,11.2,85,0.00,,---,0.00,0.00,VWS V14.01,2013-07-10 07:51:00,
2013-07-10 02:55:00,82.2,77.2,29.98,SSE,167,1.0,7.2,85,0.00,,---,0.00,0.00,VWS V14.01,2013-07-10 07:55:00,
2013-07-10 02:56:00,82.2,77.2,29.98,SSE,167,1.0,7.2,85,0.00,,---,0.00,0.00,VWS V14.01,2013-07-10 07:56:00,
2013-07-10 03:00:00,82.0,77.1,29.98,South,173,6.0,10.2,85,0.00,,---,0.00,0.00,VWS V14.01,2013-07-10 08:00:00,
2013-07-10 03:01:00,82.0,77.1,29.98,SSE,156,5.0,10.2,85,0.00,,---,0.00,0.00,VWS V14.01,2013-07-10 08:01:00,
2013-07-10 03:05:00,82.0,77.1,29.98,South,170,5.0,10.2,85,0.00,,---,0.00,0.00,VWS V14.01,2013-07-10 08:05:00,
2013-07-10 03:06:00,82.0,77.1,29.98,SSE,148,7.0,10.2,85,0.00,,---,0.00,0.00,VWS V14.01,2013-07-10 08:06:00,
2013-07-10 03:10:00,81.8,76.8,29.98,SSE,150,0.0,10.2,85,0.00,,---,0.00,0.00,VWS V14.01,2013-07-10 08:10:00,
2013-07-10 03:11:00,81.8,76.8,29.98,SSE,150,1.0,10.2,85,0.00,,---,0.00,0.00,VWS V14.01,2013-07-10 08:11:00,
2013-07-10 03:15:00,81.8,77.2,29.98,SSE,147,6.0,10.2,86,0.00,,---,0.00,0.00,VWS V14.01,2013-07-10 08:15:00,
2013-07-10 03:16:00,81.8,77.2,29.98,SE,146,6.0,10.2,86,0.00,,---,0.00,0.00,VWS V14.01,2013-07-10 08:16:00,
2013-07-10 03:20:00,81.8,77.2,29.98,SSE,148,2.0,11.2,86,0.00,,---,0.00,0.00,VWS V14.01,2013-07-10 08:20:00,
2013-07-10 03:21:00,81.8,77.2,29.98,SSE,148,6.0,11.2,86,0.00,,---,0.00,0.00,VWS V14.01,2013-07-10 08:21:00,
2013-07-10 03:25:00,82.0,77.4,29.98,SSE,153,2.0,11.2,86,0.00,,---,0.00,0.00,VWS V14.01,2013-07-10 08:25:00,
2013-07-10 03:26:00,82.0,77.4,29.98,SSE,153,2.0,11.2,86,0.00,,---,0.00,0.00,VWS V14.01,2013-07-10 08:26:00,
2013-07-10 03:30:00,81.8,77.2,29.98,SSE,150,4.0,10.2,86,0.00,,---,0.00,0.00,VWS V14.01,2013-07-10 08:30:00,
2013-07-10 03:31:00,81.8,77.2,29.98,SE,142,2.0,10.2,86,0.00,,---,0.00,0.00,VWS V14.01,2013-07-10 08:31:00,
2013-07-10 03:35:00,81.8,77.6,29.98,SE,146,5.0,13.2,87,0.00,,---,0.00,0.00,VWS V14.01,2013-07-10 08:35:00,
2013-07-10 03:36:00,81.8,77.6,29.98,SSE,164,3.0,13.2,87,0.00,,---,0.00,0.00,VWS V14.01,2013-07-10 08:36:00,
2013-07-10 03:40:00,81.6,77.4,29.98,South,169,5.0,10.2,87,0.00,,---,0.00,0.00,VWS V14.01,2013-07-10 08:40:00,
2013-07-10 03:41:00,81.6,77.4,29.98,South,184,5.0,10.2,87,0.00,,---,0.00,0.00,VWS V14.01,2013-07-10 08:41:00,
2013-07-10 03:45:00,81.6,77.7,29.97,SSE,161,4.0,12.2,88,0.00,,---,0.00,0.00,VWS V14.01,2013-07-10 08:45:00,
2013-07-10 03:46:00,81.6,77.7,29.97,SSE,160,4.0,12.2,88,0.00,,---,0.00,0.00,VWS V14.01,2013-07-10 08:46:00,
2013-07-10 03:50:00,81.6,77.7,29.97,SE,138,4.0,9.2,88,0.00,,---,0.00,0.00,VWS V14.01,2013-07-10 08:50:00,
2013-07-10 03:51:00,81.6,77.7,29.97,SE,138,2.0,9.2,88,0.00,,---,0.00,0.00,VWS V14.01,2013-07-10 08:51:00,
2013-07-10 03:55:00,81.6,77.4,29.97,SSE,157,4.0,11.2,87,0.00,,---,0.00,0.00,VWS V14.01,2013-07-10 08:55:00,
2013-07-10 03:56:00,81.6,77.4,29.97,SSE,158,3.0,11.2,87,0.00,,---,0.00,0.00,VWS V14.01,2013-07-10 08:56:00,
2013-07-10 04:00:00,81.6,77.7,29.97,SE,144,4.0,8.2,88,0.00,,---,0.00,0.00,VWS V14.01,2013-07-10 09:00:00,
2013-07-10 04:01:00,81.6,77.7,29.97,SE,145,5.0,8.2,88,0.00,,---,0.00,0.00,VWS V14.01,2013-07-10 09:01:00,
2013-07-10 04:05:00,82.0,77.8,29.97,SSE,167,5.0,11.2,87,0.00,,---,0.00,0.00,VWS V14.01,2013-07-10 09:05:00,
2013-07-10 04:06:00,82.0,77.8,29.97,SE,138,4.0,11.2,87,0.00,,---,0.00,0.00,VWS V14.01,2013-07-10 09:06:00,
2013-07-10 04:10:00,82.0,77.4,29.97,SSE,167,3.0,7.2,86,0.00,,---,0.00,0.00,VWS V14.01,2013-07-10 09:10:00,
2013-07-10 04:11:00,82.0,77.4,29.97,SSE,167,3.0,7.2,86,0.00,,---,0.00,0.00,VWS V14.01,2013-07-10 09:11:00,
2013-07-10 04:15:00,82.0,77.4,29.96,SSE,159,4.0,7.2,86,0.00,,---,0.00,0.00,VWS V14.01,2013-07-10 09:15:00,
2013-07-10 04:16:00,82.0,77.4,29.96,SSE,153,0.0,7.2,86,0.00,,---,0.00,0.00,VWS V14.01,2013-07-10 09:16:00,
2013-07-10 04:20:00,81.8,77.2,29.96,SE,146,6.0,11.2,86,0.00,,---,0.00,0.00,VWS V14.01,2013-07-10 09:20:00,
2013-07-10 04:21:00,81.8,77.2,29.96,SE,144,2.0,11.2,86,0.00,,---,0.00,0.00,VWS V14.01,2013-07-10 09:21:00,
2013-07-10 04:25:00,81.6,77.0,29.96,SSE,153,3.0,10.2,86,0.00,,---,0.00,0.00,VWS V14.01,2013-07-10 09:25:00,
2013-07-10 04:26:00,81.6,77.0,29.96,SSE,153,4.0,10.2,86,0.00,,---,0.00,0.00,VWS V14.01,2013-07-10 09:26:00,
2013-07-10 04:30:00,81.6,77.4,29.96,SSE,148,5.0,12.2,87,0.00,,---,0.00,0.00,VWS V14.01,2013-07-10 09:30:00,
2013-07-10 04:31:00,81.6,77.4,29.96,SSE,151,6.0,12.2,87,0.00,,---,0.00,0.00,VWS V14.01,2013-07-10 09:31:00,
2013-07-10 04:35:00,81.4,77.2,29.96,SE,144,2.0,8.2,87,0.00,,---,0.00,0.00,VWS V14.01,2013-07-10 09:35:00,
2013-07-10 04:36:00,81.4,77.2,29.96,SE,144,2.0,8.2,87,0.00,,---,0.00,0.00,VWS V14.01,2013-07-10 09:36:00,
2013-07-10 04:40:00,81.2,77.0,29.96,South,181,3.0,9.2,87,0.00,,---,0.00,0.00,VWS V14.01,2013-07-10 09:40:00,
2013-07-10 04:41:00,81.2,77.0,29.96,South,184,4.0,9.2,87,0.00,,---,0.00,0.00,VWS V14.01,2013-07-10 09:41:00,
2013-07-10 04:45:00,81.4,77.5,29.96,South,172,3.0,9.2,88,0.00,,---,0.00,0.00,VWS V14.01,2013-07-10 09:45:00,
2013-07-10 04:46:00,81.4,77.5,29.96,South,172,2.0,9.2,88,0.00,,---,0.00,0.00,VWS V14.01,2013-07-10 09:46:00,
2013-07-10 04:50:00,81.4,77.2,29.96,South,177,4.0,12.2,87,0.00,,---,0.00,0.00,VWS V14.01,2013-07-10 09:50:00,
2013-07-10 04:51:00,81.6,77.4,29.96,South,186,3.0,12.2,87,0.00,,---,0.00,0.00,VWS V14.01,2013-07-10 09:51:00,
2013-07-10 04:55:00,81.4,77.5,29.96,SSE,151,1.0,8.2,88,0.00,,---,0.00,0.00,VWS V14.01,2013-07-10 09:55:00,
2013-07-10 04:56:00,81.4,77.5,29.96,SSE,151,2.0,8.2,88,0.00,,---,0.00,0.00,VWS V14.01,2013-07-10 09:56:00,
2013-07-10 05:00:00,81.2,77.3,29.96,SE,146,7.0,9.2,88,0.00,,---,0.00,0.00,VWS V14.01,2013-07-10 10:00:00,
2013-07-10 05:01:00,81.2,77.3,29.96,SSE,161,3.0,9.2,88,0.00,,---,0.00,0.00,VWS V14.01,2013-07-10 10:01:00,
2013-07-10 05:05:00,81.2,77.3,29.96,SE,145,4.0,10.2,88,0.00,,---,0.00,0.00,VWS V14.01,2013-07-10 10:05:00,
2013-07-10 05:06:00,81.2,77.3,29.96,SE,145,6.0,10.2,88,0.00,,---,0.00,0.00,VWS V14.01,2013-07-10 10:06:00,
2013-07-10 05:10:00,81.2,77.3,29.96,SSE,147,3.0,11.2,88,0.00,,---,0.00,0.00,VWS V14.01,2013-07-10 10:10:00,
2013-07-10 05:11:00,81.2,77.3,29.96,SSE,147,3.0,11.2,88,0.00,,---,0.00,0.00,VWS V14.01,2013-07-10 10:11:00,
2013-07-10 05:15:00,81.2,77.3,29.96,SE,128,2.0,11.2,88,0.00,,---,0.00,0.00,VWS V14.01,2013-07-10 10:15:00,
2013-07-10 05:16:00,81.2,77.3,29.96,SE,126,5.0,8.2,88,0.00,,---,0.00,0.00,VWS V14.01,2013-07-10 10:16:00,
2013-07-10 05:20:00,81.4,77.5,29.96,SE,132,0.0,7.2,88,0.00,,---,0.00,0.00,VWS V14.01,2013-07-10 10:20:00,
2013-07-10 05:21:00,81.2,77.3,29.96,SE,132,3.0,7.2,88,0.00,,---,0.00,0.00,VWS V14.01,2013-07-10 10:21:00,
2013-07-10 05:25:00,81.4,77.2,29.96,SE,144,2.0,6.2,87,0.00,,---,0.00,0.00,VWS V14.01,2013-07-10 10:25:00,
2013-07-10 05:26:00,81.6,77.7,29.96,SE,144,4.0,6.2,88,0.00,,---,0.00,0.00,VWS V14.01,2013-07-10 10:26:00,
2013-07-10 05:30:00,81.6,77.4,29.97,SE,144,2.0,5.2,87,0.00,,---,0.00,0.00,VWS V14.01,2013-07-10 10:30:00,
2013-07-10 05:31:00,81.6,77.4,29.97,SE,144,1.0,5.2,87,0.00,,---,0.00,0.00,VWS V14.01,2013-07-10 10:31:00,
2013-07-10 05:35:00,81.6,77.4,29.97,SE,144,1.0,5.2,87,0.00,,---,0.00,0.00,VWS V14.01,2013-07-10 10:35:00,
2013-07-10 05:36:00,81.6,77.4,29.97,SE,144,0.0,5.2,87,0.00,,---,0.00,0.00,VWS V14.01,2013-07-10 10:36:00,
2013-07-10 05:40:00,81.6,77.0,29.97,SE,146,3.0,5.2,86,0.00,,---,0.00,0.00,VWS V14.01,2013-07-10 10:40:00,
2013-07-10 05:41:00,81.6,77.0,29.97,SE,146,0.0,5.2,86,0.00,,---,0.00,0.00,VWS V14.01,2013-07-10 10:41:00,
2013-07-10 05:45:00,81.6,77.0,29.97,SE,146,1.0,4.2,86,0.00,,---,0.00,0.00,VWS V14.01,2013-07-10 10:45:00,
2013-07-10 05:46:00,81.6,77.0,29.97,SE,146,2.0,4.2,86,0.00,,---,0.00,0.00,VWS V14.01,2013-07-10 10:46:00,
2013-07-10 05:50:00,81.6,76.7,29.97,SSE,147,0.0,6.2,85,0.00,,---,0.00,0.00,VWS V14.01,2013-07-10 10:50:00,
2013-07-10 05:51:00,81.6,76.7,29.97,SSE,147,0.0,6.2,85,0.00,,---,0.00,0.00,VWS V14.01,2013-07-10 10:51:00,
2013-07-10 05:55:00,81.4,76.8,29.97,South,172,3.0,7.2,86,0.00,,---,0.00,0.00,VWS V14.01,2013-07-10 10:55:00,
2013-07-10 05:56:00,81.4,76.8,29.97,South,173,0.0,7.2,86,0.00,,---,0.00,0.00,VWS V14.01,2013-07-10 10:56:00,
2013-07-10 06:00:00,81.4,76.8,29.97,South,169,2.0,4.2,86,0.00,,---,0.00,0.00,VWS V14.01,2013-07-10 11:00:00,
2013-07-10 06:01:00,81.4,76.8,29.97,South,169,2.0,4.2,86,0.00,,---,0.00,0.00,VWS V14.01,2013-07-10 11:01:00,
2013-07-10 06:05:00,81.2,76.6,29.97,SSE,157,2.0,8.2,86,0.00,,---,0.00,0.00,VWS V14.01,2013-07-10 11:05:00,
2013-07-10 06:06:00,81.2,76.6,29.97,SSE,157,3.0,8.2,86,0.00,,---,0.00,0.00,VWS V14.01,2013-07-10 11:06:00,
2013-07-10 06:10:00,81.1,76.5,29.97,SE,146,0.0,6.2,86,0.00,,---,0.00,0.00,VWS V14.01,2013-07-10 11:10:00,
2013-07-10 06:11:00,81.1,76.5,29.97,SE,146,2.0,6.2,86,0.00,,---,0.00,0.00,VWS V14.01,2013-07-10 11:11:00,
2013-07-10 06:15:00,81.1,76.9,29.97,SE,138,0.0,7.2,87,0.00,,---,0.00,0.00,VWS V14.01,2013-07-10 11:15:00,
2013-07-10 06:16:00,81.1,76.9,29.97,SE,138,1.0,7.2,87,0.00,,---,0.00,0.00,VWS V14.01,2013-07-10 11:16:00,
2013-07-10 06:20:00,80.9,76.7,29.97,SE,138,0.0,5.2,87,0.00,,---,0.00,0.00,VWS V14.01,2013-07-10 11:20:00,
2013-07-10 06:21:00,80.9,76.7,29.97,SE,138,0.0,5.2,87,0.00,,---,0.00,0.00,VWS V14.01,2013-07-10 11:21:00,
2013-07-10 06:25:00,80.9,76.7,29.97,SE,138,2.0,6.2,87,0.00,,---,0.00,0.00,VWS V14.01,2013-07-10 11:25:00,
2013-07-10 06:26:00,80.9,76.7,29.97,SE,138,2.0,6.2,87,0.00,,---,0.00,0.00,VWS V14.01,2013-07-10 11:26:00,
2013-07-10 06:30:00,80.7,76.8,29.98,SE,138,1.0,5.2,88,0.00,,---,0.00,0.00,VWS V14.01,2013-07-10 11:30:00,
2013-07-10 06:31:00,80.7,76.8,29.98,SE,138,2.0,5.2,88,0.00,,---,0.00,0.00,VWS V14.01,2013-07-10 11:31:00,
2013-07-10 06:35:00,80.9,77.0,29.98,SE,138,4.0,5.2,88,0.00,,---,0.00,0.00,VWS V14.01,2013-07-10 11:35:00,
2013-07-10 06:36:00,80.9,77.0,29.98,SE,138,0.0,5.2,88,0.00,,---,0.00,0.00,VWS V14.01,2013-07-10 11:36:00,
2013-07-10 06:40:00,81.1,76.9,29.98,SE,138,0.0,5.2,87,0.00,,---,0.00,0.00,VWS V14.01,2013-07-10 11:40:00,
2013-07-10 06:41:00,81.1,76.9,29.98,SE,138,2.0,5.2,87,0.00,,---,0.00,0.00,VWS V14.01,2013-07-10 11:41:00,
2013-07-10 06:45:00,80.9,76.7,29.98,SE,138,2.0,6.2,87,0.00,,---,0.00,5.00,VWS V14.01,2013-07-10 11:45:00,
2013-07-10 06:46:00,80.9,76.7,29.98,SE,138,1.0,6.2,87,0.00,,---,0.00,5.00,VWS V14.01,2013-07-10 11:46:00,
2013-07-10 06:50:00,80.9,77.0,29.98,SE,138,0.0,6.2,88,0.00,,---,0.00,9.00,VWS V14.01,2013-07-10 11:50:00,
2013-07-10 06:51:00,80.9,77.0,29.98,SE,138,0.0,6.2,88,0.00,,---,0.00,7.00,VWS V14.01,2013-07-10 11:51:00,
2013-07-10 06:55:00,80.9,77.0,29.98,SE,138,2.0,5.2,88,0.00,,---,0.00,14.00,VWS V14.01,2013-07-10 11:55:00,
2013-07-10 06:56:00,80.9,77.0,29.98,SE,138,2.0,5.2,88,0.00,,---,0.00,14.00,VWS V14.01,2013-07-10 11:56:00,
2013-07-10 07:00:00,81.2,77.0,29.98,SE,142,5.0,9.2,87,0.00,,---,0.00,18.00,VWS V14.01,2013-07-10 12:00:00,
2013-07-10 07:01:00,81.2,77.0,29.98,SE,142,1.0,9.2,87,0.00,,---,0.00,18.00,VWS V14.01,2013-07-10 12:01:00,
2013-07-10 07:05:00,81.4,77.2,29.98,SE,138,6.0,7.2,87,0.00,,---,0.00,23.00,VWS V14.01,2013-07-10 12:05:00,
2013-07-10 07:06:00,81.4,77.2,29.98,SE,138,0.0,7.2,87,0.00,,---,0.00,23.00,VWS V14.01,2013-07-10 12:06:00,
2013-07-10 07:10:00,81.6,77.0,29.98,SE,146,4.0,7.2,86,0.00,,---,0.00,26.00,VWS V14.01,2013-07-10 12:10:00,
2013-07-10 07:11:00,81.6,77.0,29.98,SE,146,6.0,7.2,86,0.00,,---,0.00,26.00,VWS V14.01,2013-07-10 12:11:00,
2013-07-10 07:15:00,81.8,77.2,29.98,SSE,152,2.0,7.2,86,0.00,,---,0.00,30.00,VWS V14.01,2013-07-10 12:15:00,
2013-07-10 07:16:00,81.8,77.2,29.98,SSE,152,3.0,7.2,86,0.00,,---,0.00,30.00,VWS V14.01,2013-07-10 12:16:00,
2013-07-10 07:20:00,82.0,77.1,29.98,SSE,149,3.0,6.2,85,0.00,,---,0.00,35.00,VWS V14.01,2013-07-10 12:20:00,
2013-07-10 07:21:00,82.0,77.1,29.98,SSE,148,4.0,6.2,85,0.00,,---,0.00,35.00,VWS V14.01,2013-07-10 12:21:00,
2013-07-10 07:25:00,82.0,77.1,29.98,SSE,149,0.0,6.2,85,0.00,,---,0.00,35.00,VWS V14.01,2013-07-10 12:25:00,
2013-07-10 07:26:00,82.0,77.1,29.98,SSE,149,0.0,6.2,85,0.00,,---,0.00,33.00,VWS V14.01,2013-07-10 12:26:00,
2013-07-10 07:30:00,82.0,77.1,29.99,SSE,149,0.0,7.2,85,0.00,,---,0.00,42.00,VWS V14.01,2013-07-10 12:30:00,
2013-07-10 07:31:00,82.0,77.1,29.99,SSE,149,0.0,7.2,85,0.00,,---,0.00,42.00,VWS V14.01,2013-07-10 12:31:00,
2013-07-10 07:35:00,82.2,77.2,29.99,SSE,149,4.0,7.2,85,0.00,,---,0.00,53.00,VWS V14.01,2013-07-10 12:35:00,
2013-07-10 07:36:00,82.2,77.2,29.99,SSE,149,0.0,7.2,85,0.00,,---,0.00,53.00,VWS V14.01,2013-07-10 12:36:00,
2013-07-10 07:40:00,82.4,77.4,29.99,SSE,149,2.0,5.2,85,0.00,,---,0.00,53.00,VWS V14.01,2013-07-10 12:40:00,
2013-07-10 07:41:00,82.4,77.4,29.99,SSE,149,1.0,5.2,85,0.00,,---,0.00,53.00,VWS V14.01,2013-07-10 12:41:00,
2013-07-10 07:45:00,82.6,77.3,29.99,ESE,123,5.0,8.2,84,0.00,,---,0.00,58.00,VWS V14.01,2013-07-10 12:45:00,
2013-07-10 07:46:00,82.6,77.3,29.99,ESE,123,6.0,8.2,84,0.00,,---,0.00,60.00,VWS V14.01,2013-07-10 12:46:00,
2013-07-10 07:50:00,82.6,77.3,29.99,SE,131,3.0,8.2,84,0.00,,---,0.00,56.00,VWS V14.01,2013-07-10 12:50:00,
2013-07-10 07:51:00,82.6,77.3,29.99,SE,131,5.0,8.2,84,0.00,,---,0.00,56.00,VWS V14.01,2013-07-10 12:51:00,
2013-07-10 07:55:00,82.8,77.5,29.99,SE,137,5.0,7.2,84,0.00,,---,0.00,67.00,VWS V14.01,2013-07-10 12:55:00,
2013-07-10 07:56:00,82.8,77.5,29.99,SE,137,5.0,7.2,84,0.00,,---,0.00,67.00,VWS V14.01,2013-07-10 12:56:00,
2013-07-10 08:00:00,83.0,77.7,29.99,SE,134,3.0,7.2,84,0.00,,---,0.00,79.00,VWS V14.01,2013-07-10 13:00:00,
2013-07-10 08:01:00,83.0,77.7,29.99,SE,134,5.0,7.2,84,0.00,,---,0.00,77.00,VWS V14.01,2013-07-10 13:01:00,
2013-07-10 08:05:00,83.4,77.7,29.99,SE,134,3.0,7.2,83,0.00,,---,0.00,86.00,VWS V14.01,2013-07-10 13:05:00,
2013-07-10 08:06:00,83.4,77.7,29.99,SE,134,3.0,7.2,83,0.00,,---,0.00,86.00,VWS V14.01,2013-07-10 13:06:00,
2013-07-10 08:10:00,83.8,77.7,29.99,SE,136,6.0,7.2,82,0.00,,---,0.00,83.00,VWS V14.01,2013-07-10 13:10:00,
2013-07-10 08:11:00,83.8,77.7,29.99,SE,134,2.0,6.2,82,0.00,,---,0.00,83.00,VWS V14.01,2013-07-10 13:11:00,
2013-07-10 08:15:00,83.8,77.7,29.99,SE,136,2.0,7.2,82,0.00,,---,0.00,77.00,VWS V14.01,2013-07-10 13:15:00,
2013-07-10 08:16:00,83.8,77.7,29.99,SE,136,3.0,7.2,82,0.00,,---,0.00,77.00,VWS V14.01,2013-07-10 13:16:00,
2013-07-10 08:20:00,84.3,77.5,29.99,SE,133,5.0,8.2,80,0.00,,---,0.00,69.00,VWS V14.01,2013-07-10 13:20:00,
2013-07-10 08:21:00,84.3,77.5,29.99,SE,133,3.0,8.2,80,0.00,,---,0.00,72.00,VWS V14.01,2013-07-10 13:21:00,
2013-07-10 08:25:00,84.0,77.2,29.99,SE,134,3.0,8.2,80,0.00,,---,0.00,69.00,VWS V14.01,2013-07-10 13:25:00,
2013-07-10 08:26:00,84.0,77.2,29.99,SE,133,4.0,8.2,80,0.00,,---,0.00,69.00,VWS V14.01,2013-07-10 13:26:00,
2013-07-10 08:30:00,83.8,77.3,30.00,SE,136,1.0,8.2,81,0.00,,---,0.00,84.00,VWS V14.01,2013-07-10 13:30:00,
2013-07-10 08:31:00,83.8,77.3,30.00,SE,136,3.0,8.2,81,0.00,,---,0.00,84.00,VWS V14.01,2013-07-10 13:31:00,
2013-07-10 08:35:00,84.0,77.5,30.00,SE,136,3.0,5.2,81,0.00,,---,0.00,76.00,VWS V14.01,2013-07-10 13:35:00,
2013-07-10 08:36:00,84.0,77.5,30.00,SE,136,1.0,5.2,81,0.00,,---,0.00,81.00,VWS V14.01,2013-07-10 13:36:00,
2013-07-10 08:40:00,84.5,76.9,30.00,SE,135,3.0,6.2,78,0.00,,---,0.00,93.00,VWS V14.01,2013-07-10 13:40:00,
2013-07-10 08:41:00,84.5,76.9,30.00,SE,135,4.0,6.2,78,0.00,,---,0.00,93.00,VWS V14.01,2013-07-10 13:41:00,
2013-07-10 08:45:00,84.5,77.3,30.00,SE,130,6.0,8.2,79,0.00,,---,0.00,116.00,VWS V14.01,2013-07-10 13:45:00,
2013-07-10 08:46:00,84.5,77.3,30.00,SE,132,3.0,8.2,79,0.00,,---,0.00,116.00,VWS V14.01,2013-07-10 13:46:00,
2013-07-10 08:50:00,85.3,77.3,30.00,SE,135,7.0,8.2,77,0.00,,---,0.00,74.00,VWS V14.01,2013-07-10 13:50:00,
2013-07-10 08:51:00,85.3,77.3,30.00,SE,136,4.0,8.2,77,0.00,,---,0.00,77.00,VWS V14.01,2013-07-10 13:51:00,
2013-07-10 08:55:00,85.1,76.7,30.00,SE,127,3.0,8.2,76,0.00,,---,0.00,67.00,VWS V14.01,2013-07-10 13:55:00,
2013-07-10 08:56:00,85.1,77.1,30.00,SE,127,4.0,8.2,77,0.00,,---,0.00,65.00,VWS V14.01,2013-07-10 13:56:00,
2013-07-10 09:00:00,84.7,77.1,30.00,SE,134,3.0,8.2,78,0.00,,---,0.00,70.00,VWS V14.01,2013-07-10 14:00:00,
2013-07-10 09:01:00,84.7,77.1,30.00,SE,134,5.0,8.2,78,0.00,,---,0.00,70.00,VWS V14.01,2013-07-10 14:01:00,
2013-07-10 09:05:00,84.9,76.9,30.00,SE,133,6.0,9.2,77,0.00,,---,0.00,74.00,VWS V14.01,2013-07-10 14:05:00,
2013-07-10 09:06:00,84.9,76.9,30.00,SE,130,5.0,9.2,77,0.00,,---,0.00,74.00,VWS V14.01,2013-07-10 14:06:00,
2013-07-10 09:10:00,85.1,77.1,30.00,SE,128,6.0,8.2,77,0.00,,---,0.00,72.00,VWS V14.01,2013-07-10 14:10:00,
2013-07-10 09:11:00,84.9,76.9,30.00,ESE,105,4.0,7.2,77,0.00,,---,0.00,72.00,VWS V14.01,2013-07-10 14:11:00,
2013-07-10 09:15:00,84.9,76.5,30.00,SE,132,1.0,8.2,76,0.00,,---,0.00,84.00,VWS V14.01,2013-07-10 14:15:00,
2013-07-10 09:16:00,84.9,76.5,30.00,SE,132,3.0,8.2,76,0.00,,---,0.00,81.00,VWS V14.01,2013-07-10 14:16:00,
2013-07-10 09:20:00,85.5,77.1,30.00,SE,128,4.0,8.2,76,0.00,,---,0.00,104.00,VWS V14.01,2013-07-10 14:20:00,
2013-07-10 09:21:00,85.3,76.9,30.00,SE,128,5.0,7.2,76,0.00,,---,0.00,104.00,VWS V14.01,2013-07-10 14:21:00,
2013-07-10 09:25:00,85.9,77.1,30.00,ESE,119,6.0,8.2,75,0.00,,---,0.00,144.00,VWS V14.01,2013-07-10 14:25:00,
2013-07-10 09:26:00,85.9,77.1,30.00,ESE,119,2.0,8.2,75,0.00,,---,0.00,135.00,VWS V14.01,2013-07-10 14:26:00,
2013-07-10 09:30:00,86.7,77.0,30.00,SE,128,4.0,10.2,73,0.00,,---,0.00,199.00,VWS V14.01,2013-07-10 14:30:00,
2013-07-10 09:31:00,86.5,76.8,30.00,SE,128,4.0,10.2,73,0.00,,---,0.00,188.00,VWS V14.01,2013-07-10 14:31:00,
2013-07-10 09:35:00,86.7,77.0,30.00,SE,134,4.0,8.2,73,0.00,,---,0.00,265.00,VWS V14.01,2013-07-10 14:35:00,
2013-07-10 09:36:00,87.0,77.3,30.00,SE,133,4.0,8.2,73,0.00,,---,0.00,265.00,VWS V14.01,2013-07-10 14:36:00,
2013-07-10 09:40:00,86.5,76.4,30.00,SE,134,9.0,10.2,72,0.00,,---,0.00,339.00,VWS V14.01,2013-07-10 14:40:00,
2013-07-10 09:41:00,86.5,76.4,30.00,ESE,121,1.0,7.2,72,0.00,,---,0.00,339.00,VWS V14.01,2013-07-10 14:41:00,
2013-07-10 09:45:00,86.3,76.6,30.00,SE,136,7.0,10.2,73,0.00,,---,0.00,425.00,VWS V14.01,2013-07-10 14:45:00,
2013-07-10 09:46:00,86.3,76.6,30.00,SE,136,2.0,10.2,73,0.00,,---,0.00,411.00,VWS V14.01,2013-07-10 14:46:00,
2013-07-10 09:50:00,86.5,77.2,30.00,SE,127,3.0,8.2,74,0.00,,---,0.00,483.00,VWS V14.01,2013-07-10 14:50:00,
2013-07-10 09:55:00,87.0,76.9,30.00,SE,131,7.0,10.2,72,0.00,,---,0.00,118.00,VWS V14.01,2013-07-10 14:55:00,
2013-07-10 10:00:00,86.5,76.8,30.00,SE,145,5.0,10.2,73,0.00,,---,0.00,608.00,VWS V14.01,2013-07-10 15:00:00,
2013-07-10 10:05:00,86.5,76.8,30.00,SE,146,4.0,8.2,73,0.00,,---,0.00,629.00,VWS V14.01,2013-07-10 15:05:00,
2013-07-10 10:10:00,87.6,77.0,30.00,SE,136,3.0,10.2,71,0.00,,---,0.00,664.00,VWS V14.01,2013-07-10 15:10:00,
2013-07-10 10:15:00,87.4,76.8,30.00,SE,138,2.0,8.2,71,0.00,,---,0.00,668.00,VWS V14.01,2013-07-10 15:15:00,
2013-07-10 10:20:00,87.4,77.3,30.00,ESE,117,7.0,12.2,72,0.00,,---,0.00,680.00,VWS V14.01,2013-07-10 15:20:00,
2013-07-10 10:25:00,87.2,77.1,30.00,SE,141,7.0,8.2,72,0.00,,---,0.00,691.00,VWS V14.01,2013-07-10 15:25:00,
2013-07-10 10:30:00,87.2,77.1,30.01,SE,132,5.0,8.2,72,0.00,,---,0.00,359.00,VWS V14.01,2013-07-10 15:30:00,
2013-07-10 10:35:00,87.6,76.6,30.01,SE,142,5.0,13.2,70,0.00,,---,0.00,719.00,VWS V14.01,2013-07-10 15:35:00,
2013-07-10 10:40:00,88.2,77.2,30.01,ENE,74,5.0,11.2,70,0.00,,---,0.00,722.00,VWS V14.01,2013-07-10 15:40:00,
2013-07-10 10:45:00,89.3,77.4,30.01,East,94,4.0,12.2,68,0.00,,---,0.00,751.00,VWS V14.01,2013-07-10 15:45:00,
2013-07-10 10:50:00,89.3,76.9,30.01,SE,143,2.0,8.2,67,0.00,,---,0.00,744.00,VWS V14.01,2013-07-10 15:50:00,
2013-07-10 10:55:00,89.7,77.3,30.01,East,94,3.0,10.2,67,0.00,,---,0.00,765.00,VWS V14.01,2013-07-10 15:55:00,
2013-07-10 11:00:00,89.3,77.4,30.01,SE,137,6.0,11.2,68,0.00,,---,0.00,765.00,VWS V14.01,2013-07-10 16:00:00,
2013-07-10 11:05:00,88.6,76.7,30.01,ENE,70,3.0,10.2,68,0.00,,---,0.00,786.00,VWS V14.01,2013-07-10 16:05:00,
2013-07-10 11:10:00,88.6,77.1,30.01,SE,137,4.0,10.2,69,0.00,,---,0.00,796.00,VWS V14.01,2013-07-10 16:10:00,
2013-07-10 11:15:00,89.0,77.5,30.01,SE,138,12.0,14.2,69,0.00,,---,0.00,800.00,VWS V14.01,2013-07-10 16:15:00,
2013-07-10 11:20:00,89.0,77.1,30.01,East,93,7.0,11.2,68,0.00,,---,0.00,831.00,VWS V14.01,2013-07-10 16:20:00,
2013-07-10 11:25:00,89.0,77.5,30.01,ENE,78,3.0,12.2,69,0.00,,---,0.00,772.00,VWS V14.01,2013-07-10 16:25:00,
2013-07-10 11:30:00,88.4,77.4,30.01,East,100,6.0,13.2,70,0.00,,---,0.00,851.00,VWS V14.01,2013-07-10 16:30:00,
2013-07-10 11:35:00,88.6,77.6,30.01,ESE,119,5.0,13.2,70,0.00,,---,0.00,838.00,VWS V14.01,2013-07-10 16:35:00,
2013-07-10 11:40:00,89.5,77.6,30.01,SE,128,8.0,14.2,68,0.00,,---,0.00,844.00,VWS V14.01,2013-07-10 16:40:00,
2013-07-10 11:45:00,89.3,76.9,30.00,SE,138,5.0,14.2,67,0.00,,---,0.00,854.00,VWS V14.01,2013-07-10 16:45:00,
2013-07-10 11:50:00,90.1,77.7,30.00,SSE,157,4.0,13.2,67,0.00,,---,0.00,863.00,VWS V14.01,2013-07-10 16:50:00,
2013-07-10 11:55:00,90.5,76.2,30.00,East,99,9.0,13.2,63,0.00,,---,0.00,875.00,VWS V14.01,2013-07-10 16:55:00,
2013-07-10 12:00:00,89.9,77.0,30.00,ESE,102,9.0,12.2,66,0.00,,---,0.00,893.00,VWS V14.01,2013-07-10 17:00:00,
2013-07-10 12:05:00,89.5,76.7,30.00,ENE,74,3.0,12.2,66,0.00,,---,0.00,870.00,VWS V14.01,2013-07-10 17:05:00,
2013-07-10 12:10:00,89.9,77.5,30.00,ESE,119,9.0,15.2,67,0.00,,---,0.00,905.00,VWS V14.01,2013-07-10 17:10:00,
2013-07-10 12:15:00,90.1,77.7,30.00,SSE,148,4.0,13.2,67,0.00,,---,0.00,912.00,VWS V14.01,2013-07-10 17:15:00,
2013-07-10 12:20:00,90.7,78.2,30.00,East,88,7.0,12.2,67,0.00,,---,0.00,921.00,VWS V14.01,2013-07-10 17:20:00,
2013-07-10 12:25:00,90.5,77.6,30.00,ESE,119,7.0,15.2,66,0.00,,---,0.00,932.00,VWS V14.01,2013-07-10 17:25:00,
2013-07-10 12:30:00,89.9,77.9,29.99,East,93,12.0,13.2,68,0.00,,---,0.00,930.00,VWS V14.01,2013-07-10 17:30:00,
2013-07-10 12:35:00,89.7,77.7,29.99,ESE,108,11.0,14.2,68,0.00,,---,0.00,932.00,VWS V14.01,2013-07-10 17:35:00,
2013-07-10 12:40:00,89.3,77.4,29.99,ESE,111,7.0,15.2,68,0.00,,---,0.00,937.00,VWS V14.01,2013-07-10 17:40:00,
2013-07-10 12:45:00,89.7,77.3,29.99,ESE,123,4.0,13.2,67,0.00,,---,0.00,947.00,VWS V14.01,2013-07-10 17:45:00,
2013-07-10 12:50:00,90.5,78.1,29.99,SE,136,10.0,14.2,67,0.00,,---,0.00,942.00,VWS V14.01,2013-07-10 17:50:00,
2013-07-10 12:55:00,91.4,78.4,29.99,SSE,152,8.0,14.2,66,0.00,,---,0.00,949.00,VWS V14.01,2013-07-10 17:55:00,
2013-07-10 13:00:00,90.5,77.6,29.99,East,98,3.0,18.2,66,0.00,,---,0.00,956.00,VWS V14.01,2013-07-10 18:00:00,
2013-07-10 13:05:00,90.3,77.4,29.99,ESE,113,5.0,15.2,66,0.00,,---,0.00,954.00,VWS V14.01,2013-07-10 18:05:00,
2013-07-10 13:10:00,90.3,77.9,29.99,East,97,10.0,13.2,67,0.00,,---,0.00,960.00,VWS V14.01,2013-07-10 18:10:00,
2013-07-10 13:15:00,90.1,77.7,29.98,SE,124,11.0,16.2,67,0.00,,---,0.00,963.00,VWS V14.01,2013-07-10 18:15:00,
2013-07-10 13:20:00,90.3,77.9,29.98,SE,136,10.0,15.2,67,0.00,,---,0.00,972.00,VWS V14.01,2013-07-10 18:20:00,
2013-07-10 13:25:00,90.3,77.9,29.98,ENE,57,11.0,16.2,67,0.00,,---,0.00,974.00,VWS V14.01,2013-07-10 18:25:00,
2013-07-10 13:30:00,90.5,78.1,29.98,ESE,103,6.0,16.2,67,0.00,,---,0.00,979.00,VWS V14.01,2013-07-10 18:30:00,
2013-07-10 13:35:00,90.3,77.4,29.98,ESE,104,5.0,15.2,66,0.00,,---,0.00,983.00,VWS V14.01,2013-07-10 18:35:00,
2013-07-10 13:40:00,89.7,77.7,29.98,ENE,76,9.0,16.2,68,0.00,,---,0.00,749.00,VWS V14.01,2013-07-10 18:40:00,
2013-07-10 13:45:00,89.7,77.3,29.98,East,88,11.0,16.2,67,0.00,,---,0.00,1030.00,VWS V14.01,2013-07-10 18:45:00,
2013-07-10 13:50:00,90.5,78.5,29.98,SSE,153,15.0,17.2,68,0.00,,---,0.00,1013.00,VWS V14.01,2013-07-10 18:50:00,
2013-07-10 13:55:00,90.7,77.3,29.98,ESE,115,12.0,16.2,65,0.00,,---,0.00,879.00,VWS V14.01,2013-07-10 18:55:00,
2013-07-10 14:00:00,89.7,77.3,29.98,SE,133,12.0,16.2,67,0.00,,---,0.00,854.00,VWS V14.01,2013-07-10 19:00:00,
2013-07-10 14:05:00,89.5,77.1,29.98,ESE,123,12.0,16.2,67,0.00,,---,0.00,905.00,VWS V14.01,2013-07-10 19:05:00,
2013-07-10 14:10:00,89.5,76.7,29.98,ESE,123,11.0,15.2,66,0.00,,---,0.00,925.00,VWS V14.01,2013-07-10 19:10:00,
2013-07-10 14:15:00,89.3,76.9,29.97,SE,124,7.0,18.2,67,0.00,,---,0.00,942.00,VWS V14.01,2013-07-10 19:15:00,
2013-07-10 14:20:00,89.5,77.6,29.97,SE,138,9.0,18.2,68,0.00,,---,0.00,958.00,VWS V14.01,2013-07-10 19:20:00,
2013-07-10 14:25:00,90.3,77.4,29.97,East,96,3.0,16.2,66,0.00,,---,0.00,902.00,VWS V14.01,2013-07-10 19:25:00,
2013-07-10 14:30:00,89.9,77.0,29.97,East,94,10.0,15.2,66,0.00,,---,0.00,914.00,VWS V14.01,2013-07-10 19:30:00,
2013-07-10 14:35:00,90.5,77.1,29.97,SE,132,9.0,14.2,65,0.00,,---,0.00,937.00,VWS V14.01,2013-07-10 19:35:00,
2013-07-10 14:40:00,90.7,77.3,29.97,SE,136,11.0,14.2,65,0.00,,---,0.00,940.00,VWS V14.01,2013-07-10 19:40:00,
2013-07-10 14:45:00,90.1,77.7,29.96,ESE,118,11.0,15.2,67,0.00,,---,0.00,909.00,VWS V14.01,2013-07-10 19:45:00,
2013-07-10 14:50:00,91.4,77.0,29.96,East,98,5.0,14.2,63,0.00,,---,0.00,916.00,VWS V14.01,2013-07-10 19:50:00,
2013-07-10 14:55:00,91.2,77.3,29.96,East,98,7.0,16.2,64,0.00,,---,0.00,944.00,VWS V14.01,2013-07-10 19:55:00,
2013-07-10 15:00:00,89.7,77.3,29.96,SSE,153,12.0,16.2,67,0.00,,---,0.00,904.00,VWS V14.01,2013-07-10 20:00:00,
2013-07-10 15:05:00,90.3,76.9,29.96,SE,141,12.0,16.2,65,0.00,,---,0.00,912.00,VWS V14.01,2013-07-10 20:05:00,
2013-07-10 15:10:00,90.1,77.2,29.96,SSE,150,10.0,16.2,66,0.00,,---,0.00,904.00,VWS V14.01,2013-07-10 20:10:00,
2013-07-10 15:15:00,91.0,76.7,29.96,SE,128,4.0,17.2,63,0.00,,---,0.00,898.00,VWS V14.01,2013-07-10 20:15:00,
2013-07-10 15:20:00,91.0,77.1,29.96,SE,129,2.0,16.2,64,0.00,,---,0.00,888.00,VWS V14.01,2013-07-10 20:20:00,
2013-07-10 15:25:00,89.9,77.5,29.96,ESE,115,10.0,16.2,67,0.00,,---,0.00,875.00,VWS V14.01,2013-07-10 20:25:00,
2013-07-10 15:30:00,89.5,77.6,29.95,SSE,148,12.0,15.2,68,0.00,,---,0.00,863.00,VWS V14.01,2013-07-10 20:30:00,
2013-07-10 15:35:00,89.3,77.4,29.95,SE,142,11.0,19.2,68,0.00,,---,0.00,854.00,VWS V14.01,2013-07-10 20:35:00,
2013-07-10 15:40:00,90.1,77.2,29.95,SE,140,13.0,17.2,66,0.00,,---,0.00,844.00,VWS V14.01,2013-07-10 20:40:00,
2013-07-10 15:45:00,90.1,76.8,29.95,SE,126,3.0,18.2,65,0.00,,---,0.00,835.00,VWS V14.01,2013-07-10 20:45:00,
2013-07-10 15:50:00,90.1,77.2,29.95,East,90,9.0,17.2,66,0.00,,---,0.00,816.00,VWS V14.01,2013-07-10 20:50:00,
2013-07-10 15:55:00,90.3,76.9,29.95,ESE,112,9.0,16.2,65,0.00,,---,0.00,809.00,VWS V14.01,2013-07-10 20:55:00,
2013-07-10 16:00:00,89.7,77.3,29.94,SE,146,11.0,19.2,67,0.00,,---,0.00,805.00,VWS V14.01,2013-07-10 21:00:00,
2013-07-10 16:05:00,89.3,76.5,29.94,SSE,148,17.0,18.2,66,0.00,,---,0.00,788.00,VWS V14.01,2013-07-10 21:05:00,
2013-07-10 16:10:00,89.9,77.0,29.94,SE,134,5.0,16.2,66,0.00,,---,0.00,770.00,VWS V14.01,2013-07-10 21:10:00,
2013-07-10 16:15:00,89.7,77.3,29.94,SE,126,6.0,16.2,67,0.00,,---,0.00,761.00,VWS V14.01,2013-07-10 21:15:00,
2013-07-10 16:20:00,90.1,76.8,29.94,SE,143,12.0,18.2,65,0.00,,---,0.00,754.00,VWS V14.01,2013-07-10 21:20:00,
2013-07-10 16:25:00,89.0,75.7,29.94,SSE,150,10.0,16.2,65,0.00,,---,0.00,738.00,VWS V14.01,2013-07-10 21:25:00,
2013-07-10 16:30:00,89.3,75.5,29.94,SE,139,11.0,16.2,64,0.00,,---,0.00,715.00,VWS V14.01,2013-07-10 21:30:00,
2013-07-10 16:35:00,89.5,75.7,29.94,SE,138,8.0,17.2,64,0.00,,---,0.00,705.00,VWS V14.01,2013-07-10 21:35:00,
2013-07-10 16:40:00,89.9,76.6,29.94,SSE,150,4.0,15.2,65,0.00,,---,0.00,694.00,VWS V14.01,2013-07-10 21:40:00,
2013-07-10 16:45:00,89.5,75.7,29.93,SE,137,8.0,14.2,64,0.00,,---,0.00,680.00,VWS V14.01,2013-07-10 21:45:00,
2013-07-10 16:50:00,89.7,76.4,29.93,East,96,11.0,13.2,65,0.00,,---,0.00,668.00,VWS V14.01,2013-07-10 21:50:00,
2013-07-10 16:55:00,89.5,75.7,29.93,SE,130,9.0,15.2,64,0.00,,---,0.00,650.00,VWS V14.01,2013-07-10 21:55:00,
2013-07-10 17:00:00,89.7,75.4,29.92,SE,128,6.0,16.2,63,0.00,,---,0.00,638.00,VWS V14.01,2013-07-10 22:00:00,
2013-07-10 17:05:00,90.5,75.7,29.92,ESE,123,4.0,17.2,62,0.00,,---,0.00,622.00,VWS V14.01,2013-07-10 22:05:00,
2013-07-10 17:10:00,89.9,75.6,29.92,SSE,158,14.0,16.2,63,0.00,,---,0.00,606.00,VWS V14.01,2013-07-10 22:10:00,
2013-07-10 17:15:00,89.9,75.6,29.92,SSE,155,10.0,14.2,63,0.00,,---,0.00,591.00,VWS V14.01,2013-07-10 22:15:00,
2013-07-10 17:20:00,89.7,75.9,29.92,ESE,117,8.0,14.2,64,0.00,,---,0.00,577.00,VWS V14.01,2013-07-10 22:20:00,
2013-07-10 17:25:00,88.4,75.6,29.92,SSE,153,9.0,16.2,66,0.00,,---,0.00,561.00,VWS V14.01,2013-07-10 22:25:00,
2013-07-10 17:30:00,89.3,76.5,29.91,ESE,104,12.0,13.2,66,0.00,,---,0.00,545.00,VWS V14.01,2013-07-10 22:30:00,
2013-07-10 17:35:00,89.9,76.1,29.91,ESE,121,6.0,15.2,64,0.00,,---,0.00,531.00,VWS V14.01,2013-07-10 22:35:00,
2013-07-10 17:40:00,89.0,76.2,29.91,SSE,150,11.0,14.2,66,0.00,,---,0.00,501.00,VWS V14.01,2013-07-10 22:40:00,
2013-07-10 17:45:00,88.6,76.7,29.90,ESE,102,9.0,15.2,68,0.00,,---,0.00,497.00,VWS V14.01,2013-07-10 22:45:00,
2013-07-10 17:50:00,88.2,77.2,29.90,SE,137,9.0,19.2,70,0.00,,---,0.00,490.00,VWS V14.01,2013-07-10 22:50:00,
2013-07-10 17:55:00,88.4,76.9,29.90,East,88,10.0,15.2,69,0.00,,---,0.00,461.00,VWS V14.01,2013-07-10 22:55:00,
2013-07-10 18:00:00,88.8,77.3,29.89,SE,127,10.0,14.2,69,0.00,,---,0.00,443.00,VWS V14.01,2013-07-10 23:00:00,
2013-07-10 18:05:00,87.8,76.4,29.89,SE,130,6.0,17.2,69,0.00,,---,0.00,422.00,VWS V14.01,2013-07-10 23:05:00,
2013-07-10 18:10:00,87.4,77.3,29.89,SE,140,12.0,15.2,72,0.00,,---,0.00,415.00,VWS V14.01,2013-07-10 23:10:00,
2013-07-10 18:15:00,87.0,77.3,29.89,SE,134,12.0,15.2,73,0.00,,---,0.00,388.00,VWS V14.01,2013-07-10 23:15:00,
2013-07-10 18:20:00,87.6,76.6,29.89,SE,142,10.0,17.2,70,0.00,,---,0.00,374.00,VWS V14.01,2013-07-10 23:20:00,
2013-07-10 18:25:00,87.8,75.5,29.89,ESE,107,8.0,17.2,67,0.00,,---,0.00,355.00,VWS V14.01,2013-07-10 23:25:00,
2013-07-10 18:30:00,88.2,75.9,29.89,ESE,120,5.0,14.2,67,0.00,,---,0.00,329.00,VWS V14.01,2013-07-10 23:30:00,
2013-07-10 18:35:00,87.6,75.7,29.89,SE,141,10.0,17.2,68,0.00,,---,0.00,290.00,VWS V14.01,2013-07-10 23:35:00,
2013-07-10 18:40:00,87.2,74.9,29.89,SE,142,6.0,16.2,67,0.00,,---,0.00,251.00,VWS V14.01,2013-07-10 23:40:00,
2013-07-10 18:45:00,87.2,74.9,29.88,SE,146,2.0,16.2,67,0.00,,---,0.00,295.00,VWS V14.01,2013-07-10 23:45:00,
2013-07-10 18:50:00,87.0,75.2,29.88,ESE,103,5.0,16.2,68,0.00,,---,0.00,229.00,VWS V14.01,2013-07-10 23:50:00,
2013-07-10 18:55:00,86.7,74.9,29.88,SE,138,9.0,17.2,68,0.00,,---,0.00,237.00,VWS V14.01,2013-07-10 23:55:00,
2013-07-10 19:00:00,86.3,74.5,29.88,SE,127,10.0,16.2,68,0.00,,---,0.00,202.00,VWS V14.01,2013-07-11 00:00:00,
2013-07-10 19:05:00,86.1,74.3,29.88,SE,141,9.0,14.2,68,0.00,,---,0.00,236.00,VWS V14.01,2013-07-11 00:05:00,
2013-07-10 19:10:00,86.1,75.2,29.88,SE,140,5.0,14.2,70,0.00,,---,0.00,218.00,VWS V14.01,2013-07-11 00:10:00,
2013-07-10 19:15:00,86.5,75.6,29.89,East,98,3.0,13.2,70,0.00,,---,0.00,200.00,VWS V14.01,2013-07-11 00:15:00,
2013-07-10 19:20:00,86.3,76.2,29.89,SE,134,11.0,16.2,72,0.00,,---,0.00,178.00,VWS V14.01,2013-07-11 00:20:00,
2013-07-10 19:25:00,85.5,75.9,29.89,SE,136,6.0,13.2,73,0.00,,---,0.00,153.00,VWS V14.01,2013-07-11 00:25:00,
2013-07-10 19:30:00,85.5,76.3,29.88,SSE,151,6.0,13.2,74,0.00,,---,0.00,109.00,VWS V14.01,2013-07-11 00:30:00,
2013-07-10 19:35:00,85.3,76.1,29.88,SE,145,10.0,14.2,74,0.00,,---,0.00,74.00,VWS V14.01,2013-07-11 00:35:00,
2013-07-10 19:40:00,85.3,76.1,29.88,SE,139,6.0,14.2,74,0.00,,---,0.00,39.00,VWS V14.01,2013-07-11 00:40:00,
2013-07-10 19:45:00,85.7,75.6,29.89,SE,141,6.0,12.2,72,0.00,,---,0.00,30.00,VWS V14.01,2013-07-11 00:45:00,
2013-07-10 19:50:00,85.1,75.5,29.89,SE,145,11.0,14.2,73,0.00,,---,0.00,26.00,VWS V14.01,2013-07-11 00:50:00,
2013-07-10 19:55:00,84.5,75.3,29.89,SE,143,7.0,13.2,74,0.00,,---,0.00,18.00,VWS V14.01,2013-07-11 00:55:00,
2013-07-10 20:00:00,84.3,75.5,29.89,SE,128,10.0,12.2,75,0.00,,---,0.00,14.00,VWS V14.01,2013-07-11 01:00:00,
2013-07-10 20:05:00,84.1,76.1,29.89,SE,139,3.0,13.2,77,0.00,,---,0.00,11.00,VWS V14.01,2013-07-11 01:05:00,
2013-07-10 20:10:00,84.1,76.5,29.89,SE,125,8.0,13.2,78,0.00,,---,0.00,12.00,VWS V14.01,2013-07-11 01:10:00,
2013-07-10 20:15:00,84.3,76.7,29.89,SE,140,6.0,13.2,78,0.00,,---,0.00,9.00,VWS V14.01,2013-07-11 01:15:00,
2013-07-10 20:20:00,84.0,77.2,29.89,East,96,5.0,12.2,80,0.00,,---,0.00,9.00,VWS V14.01,2013-07-11 01:20:00,
2013-07-10 20:25:00,83.6,77.2,29.89,East,98,9.0,12.2,81,0.00,,---,0.00,5.00,VWS V14.01,2013-07-11 01:25:00,
2013-07-10 20:30:00,83.6,77.5,29.89,ESE,110,5.0,13.2,82,0.00,,---,0.00,0.00,VWS V14.01,2013-07-11 01:30:00,
2013-07-10 20:35:00,83.4,77.0,29.89,SE,137,13.0,17.2,81,0.00,,---,0.00,0.00,VWS V14.01,2013-07-11 01:35:00,
2013-07-10 20:40:00,83.8,77.0,29.89,ESE,103,4.0,16.2,80,0.00,,---,0.00,0.00,VWS V14.01,2013-07-11 01:40:00,
2013-07-10 20:45:00,84.0,76.8,29.90,SE,133,12.0,15.2,79,0.00,,---,0.00,0.00,VWS V14.01,2013-07-11 01:45:00,
2013-07-10 20:50:00,83.6,76.8,29.90,SSE,148,5.0,14.2,80,0.00,,---,0.00,0.00,VWS V14.01,2013-07-11 01:50:00,
2013-07-10 20:55:00,83.6,76.4,29.90,SE,141,4.0,13.2,79,0.00,,---,0.00,0.00,VWS V14.01,2013-07-11 01:55:00,
2013-07-10 21:00:00,83.2,76.4,29.90,SE,139,5.0,13.2,80,0.00,,---,0.00,0.00,VWS V14.01,2013-07-11 02:00:00,
2013-07-10 21:05:00,83.0,76.6,29.90,SSE,150,7.0,14.2,81,0.00,,---,0.00,0.00,VWS V14.01,2013-07-11 02:05:00,
2013-07-10 21:10:00,83.0,76.2,29.90,ESE,113,12.0,17.2,80,0.00,,---,0.00,0.00,VWS V14.01,2013-07-11 02:10:00,
2013-07-10 21:15:00,83.2,76.8,29.90,ESE,119,11.0,17.2,81,0.00,,---,0.00,0.00,VWS V14.01,2013-07-11 02:15:00,
2013-07-10 21:20:00,83.0,76.6,29.90,SE,144,4.0,15.2,81,0.00,,---,0.00,0.00,VWS V14.01,2013-07-11 02:20:00,
2013-07-10 21:25:00,82.8,76.4,29.90,ESE,115,4.0,15.2,81,0.00,,---,0.00,0.00,VWS V14.01,2013-07-11 02:25:00,
2013-07-10 21:30:00,82.8,76.4,29.90,SE,142,9.0,13.2,81,0.00,,---,0.00,0.00,VWS V14.01,2013-07-11 02:30:00,
2013-07-10 21:35:00,82.8,76.4,29.90,SSE,153,8.0,14.2,81,0.00,,---,0.00,0.00,VWS V14.01,2013-07-11 02:35:00,
2013-07-10 21:40:00,83.2,76.8,29.90,SSE,147,9.0,15.2,81,0.00,,---,0.00,0.00,VWS V14.01,2013-07-11 02:40:00,
2013-07-10 21:45:00,83.6,76.8,29.90,SE,137,7.0,14.2,80,0.00,,---,0.00,0.00,VWS V14.01,2013-07-11 02:45:00,
2013-07-10 21:50:00,83.2,76.8,29.90,SE,144,4.0,15.2,81,0.00,,---,0.00,0.00,VWS V14.01,2013-07-11 02:50:00,
2013-07-10 21:55:00,83.2,76.8,29.90,ESE,110,5.0,13.2,81,0.00,,---,0.00,0.00,VWS V14.01,2013-07-11 02:55:00,
2013-07-10 22:00:00,83.0,76.6,29.92,ESE,119,8.0,15.2,81,0.00,,---,0.00,0.00,VWS V14.01,2013-07-11 03:00:00,
2013-07-10 22:05:00,82.8,76.4,29.92,SE,129,10.0,13.2,81,0.00,,---,0.00,0.00,VWS V14.01,2013-07-11 03:05:00,
2013-07-10 22:10:00,82.6,76.2,29.92,ESE,122,3.0,13.2,81,0.00,,---,0.00,0.00,VWS V14.01,2013-07-11 03:10:00,
2013-07-10 22:15:00,82.8,76.4,29.92,SE,138,7.0,14.2,81,0.00,,---,0.00,0.00,VWS V14.01,2013-07-11 03:15:00,
2013-07-10 22:20:00,82.8,76.4,29.92,ESE,122,10.0,14.2,81,0.00,,---,0.00,0.00,VWS V14.01,2013-07-11 03:20:00,
2013-07-10 22:25:00,82.6,76.6,29.92,SSE,152,5.0,13.2,82,0.00,,---,0.00,0.00,VWS V14.01,2013-07-11 03:25:00,
2013-07-10 22:30:00,82.6,76.6,29.92,SE,128,4.0,13.2,82,0.00,,---,0.00,0.00,VWS V14.01,2013-07-11 03:30:00,
2013-07-10 22:35:00,82.6,76.9,29.93,SE,144,7.0,14.2,83,0.00,,---,0.00,0.00,VWS V14.01,2013-07-11 03:35:00,
2013-07-10 22:40:00,82.6,76.6,29.93,SE,138,10.0,15.2,82,0.00,,---,0.00,0.00,VWS V14.01,2013-07-11 03:40:00,
2013-07-10 22:45:00,82.8,76.8,29.93,SSE,153,2.0,14.2,82,0.00,,---,0.00,0.00,VWS V14.01,2013-07-11 03:45:00,
2013-07-10 22:50:00,83.2,76.8,29.93,SE,142,7.0,12.2,81,0.00,,---,0.00,0.00,VWS V14.01,2013-07-11 03:50:00,
2013-07-10 22:55:00,82.8,76.4,29.93,SE,134,5.0,14.2,81,0.00,,---,0.00,0.00,VWS V14.01,2013-07-11 03:55:00,
2013-07-10 23:00:00,82.8,76.8,29.93,ESE,123,5.0,14.2,82,0.00,,---,0.00,0.00,VWS V14.01,2013-07-11 04:00:00,
2013-07-10 23:01:00,82.8,76.8,29.93,SSE,164,5.0,14.2,82,0.00,,---,0.00,0.00,VWS V14.01,2013-07-11 04:01:00,
2013-07-10 23:05:00,82.4,76.7,29.93,SSE,152,5.0,15.2,83,0.00,,---,0.00,0.00,VWS V14.01,2013-07-11 04:05:00,
2013-07-10 23:06:00,82.6,76.9,29.93,SSE,164,9.0,15.2,83,0.00,,---,0.00,0.00,VWS V14.01,2013-07-11 04:06:00,
2013-07-10 23:10:00,82.4,76.7,29.93,ESE,115,5.0,14.2,83,0.00,,---,0.00,0.00,VWS V14.01,2013-07-11 04:10:00,
2013-07-10 23:11:00,82.4,76.7,29.93,SE,139,4.0,14.2,83,0.00,,---,0.00,0.00,VWS V14.01,2013-07-11 04:11:00,
2013-07-10 23:15:00,82.4,77.1,29.93,SSE,156,6.0,14.2,84,0.00,,---,0.00,0.00,VWS V14.01,2013-07-11 04:15:00,
2013-07-10 23:16:00,82.4,77.1,29.93,SSE,155,5.0,14.2,84,0.00,,---,0.00,0.00,VWS V14.01,2013-07-11 04:16:00,
2013-07-10 23:20:00,82.6,76.9,29.93,South,169,4.0,11.2,83,0.00,,---,0.00,0.00,VWS V14.01,2013-07-11 04:20:00,
2013-07-10 23:21:00,82.6,76.9,29.93,South,171,6.0,11.2,83,0.00,,---,0.00,0.00,VWS V14.01,2013-07-11 04:21:00,
2013-07-10 23:25:00,82.6,76.9,29.93,SSE,153,4.0,14.2,83,0.00,,---,0.00,0.00,VWS V14.01,2013-07-11 04:25:00,
2013-07-10 23:26:00,82.6,76.9,29.93,SSE,147,7.0,14.2,83,0.00,,---,0.00,0.00,VWS V14.01,2013-07-11 04:26:00,
2013-07-10 23:30:00,82.4,76.7,29.93,SSE,155,4.0,17.2,83,0.00,,---,0.00,0.00,VWS V14.01,2013-07-11 04:30:00,
2013-07-10 23:31:00,82.4,76.7,29.93,SE,140,4.0,17.2,83,0.00,,---,0.00,0.00,VWS V14.01,2013-07-11 04:31:00,
2013-07-10 23:35:00,82.4,76.7,29.93,SE,144,9.0,16.2,83,0.00,,---,0.00,0.00,VWS V14.01,2013-07-11 04:35:00,
2013-07-10 23:36:00,82.4,76.7,29.93,SSE,156,5.0,16.2,83,0.00,,---,0.00,0.00,VWS V14.01,2013-07-11 04:36:00,
2013-07-10 23:40:00,82.2,76.9,29.93,SSE,155,7.0,12.2,84,0.00,,---,0.00,0.00,VWS V14.01,2013-07-11 04:40:00,
2013-07-10 23:41:00,82.2,76.9,29.93,SSE,157,8.0,12.2,84,0.00,,---,0.00,0.00,VWS V14.01,2013-07-11 04:41:00,
2013-07-10 23:45:00,82.2,76.9,29.93,SSE,163,6.0,14.2,84,0.00,,---,0.00,0.00,VWS V14.01,2013-07-11 04:45:00,
2013-07-10 23:46:00,82.2,76.9,29.93,SSE,150,2.0,14.2,84,0.00,,---,0.00,0.00,VWS V14.01,2013-07-11 04:46:00,
2013-07-10 23:50:00,82.4,77.1,29.93,SSE,159,10.0,15.2,84,0.00,,---,0.00,0.00,VWS V14.01,2013-07-11 04:50:00,
2013-07-10 23:51:00,82.4,77.1,29.93,SSE,162,10.0,15.2,84,0.00,,---,0.00,0.00,VWS V14.01,2013-07-11 04:51:00,
2013-07-10 23:55:00,82.6,77.3,29.93,SE,135,4.0,13.2,84,0.00,,---,0.00,0.00,VWS V14.01,2013-07-11 04:55:00,
2013-07-10 23:56:00,82.4,77.1,29.93,SSE,149,7.0,13.2,84,0.00,,---,0.00,0.00,VWS V14.01,2013-07-11 04:56:00,